Location: Shepherdstown, WV
(39.4326°N, 77.8042°W)
Time: 08:55:13
(UTC-04:00)

Tiangong - Pass Details

Date: 25 June 2021
Orbit: 374 x 386 km, 41.5° (Epoch: 25 July)

Event Time Altitude Azimuth Distance (km) Brightness Sun altitude
Exits shadow 04:38:30 - 280° (W) 1,613 3.9 -11.1°
Reaches altitude 10° 04:39:03 10° 282° (WNW) 1,386 3.5 -11.0°
Maximum altitude 04:42:08 56° 2° (N) 455 1.7 -10.6°
Drops below altitude 10° 04:45:14 10° 82° (E) 1,394 4.8 -10.2°
Sets 04:47:20 0° 87° (E) 2,249 5.8 -9.9°
